Riverton, WY

11:53 AM MST on December 10, 2016 (GMT -0700)
Thermopolis

Weather History for KTBX - February, 2014

Change the Weather History Date:

Wednesday, February 12, 2014

  Actual Average (KRIW) Record (KRIW)
Temperature  
Mean Temperature 28 °F -  
Max Temperature 37 °F 36 °F 58 °F (2015)
Min Temperature 19 °F 4 °F -12 °F (2004)
Degree Days  
Heating Degree Days 37    
Moisture  
Dew Point 21 °F    
Average Humidity 76    
Maximum Humidity 100    
Minimum Humidity 52    
Precipitation  
Precipitation 0.00 in - - ()
Sea Level Pressure  
Sea Level Pressure 29.90 in    
Wind  
Wind Speed 19 mph (SSW)    
Max Wind Speed 51 mph    
Max Gust Speed 59 mph    
Visibility 8 miles    
Events Snow    
Averages and records for this station are not official NWS values.
T = Trace of Precipitation, MM = Missing Value Source: NWS Daily Summary

Daily Weather History Graph

Daily Weather History Graph

Search for Another Location

Airport or City:

Trip Planner

Search our weather history database for the weather conditions in past years. The results will help you decide how hot, cold, wet, or windy it might be!

Date:

Astronomy

Feb. 12, 2014 Rise Set
Actual Time 7:15 AM MST 5:39 PM MST
Civil Twilight 6:45 AM MST 6:09 PM MST
Nautical Twilight 6:12 AM MST 6:42 PM MST
Astronomical Twilight 5:39 AM MST 7:16 PM MST
Moon 3:55 PM MST (2/12) 5:35 AM MST (2/12)
Length of Visible Light 11h 23m
Length of Day
10h 24m
Waxing Gibbous, 96% of the Moon is Illuminated
Feb 12
Waxing Gibbous
Feb 14
Full
Feb 22
Last Quarter
Mar 1
New
Mar 8
First Quarter

Hourly Weather History & Observations

Time (MST) Temp. Windchill Dew Point Humidity Pressure Visibility Wind Dir Wind Speed Gust Speed Precip Events Conditions
12:15 AM 21.2 °F 10.1 °F 19.4 °F 93% 30.10 in - SSE 10.4 mph - N/A   Overcast
12:35 AM 21.2 °F 10.1 °F 19.4 °F 93% 30.10 in - SSE 10.4 mph - N/A   Overcast
12:55 AM 19.4 °F 9.5 °F 19.4 °F 100% 30.08 in - SE 8.1 mph - N/A   Overcast
1:15 AM 19.4 °F 8.6 °F 19.4 °F 100% 30.08 in - SSE 9.2 mph - N/A   Overcast
1:35 AM 19.4 °F 8.6 °F 19.4 °F 100% 30.07 in - SE 9.2 mph - N/A   Overcast
1:55 AM 19.4 °F 7.2 °F 19.4 °F 100% 30.07 in - SSE 11.5 mph - N/A   Overcast
2:15 AM 19.4 °F 5.0 °F 19.4 °F 100% 30.07 in - SE 16.1 mph - N/A   Overcast
2:35 AM 21.2 °F 8.3 °F 19.4 °F 93% 30.07 in - SE 13.8 mph - N/A   Mostly Cloudy
2:55 AM 21.2 °F 10.1 °F 19.4 °F 93% 30.06 in - SE 10.4 mph - N/A   Unknown
3:15 AM 21.2 °F 10.9 °F 19.4 °F 93% 30.06 in - SE 9.2 mph - N/A   Unknown
3:35 AM 21.2 °F 9.5 °F 19.4 °F 93% 30.05 in - SSE 11.5 mph - N/A   Unknown
3:55 AM 21.2 °F 9.5 °F 19.4 °F 93% 30.04 in - SE 11.5 mph - N/A   Unknown
4:15 AM 19.4 °F 7.2 °F 19.4 °F 100% 30.03 in - SSE 11.5 mph 17.3 mph N/A   Unknown
4:35 AM 21.2 °F 9.5 °F 19.4 °F 93% 30.04 in - SSE 11.5 mph - N/A   Mostly Cloudy
4:55 AM 21.2 °F 7.8 °F 19.4 °F 93% 30.02 in - SE 15.0 mph 25.3 mph N/A   Overcast
5:15 AM 19.4 °F 7.9 °F 17.6 °F 93% 30.01 in 10.0 mi SE 10.4 mph - N/A   Overcast
5:35 AM 19.4 °F 5.5 °F 19.4 °F 100% 30.01 in 10.0 mi South 15.0 mph 19.6 mph N/A   Overcast
5:55 AM 19.4 °F 8.6 °F 17.6 °F 93% 30.00 in 10.0 mi SSE 9.2 mph - N/A   Overcast
6:15 AM 19.4 °F 9.5 °F 17.6 °F 93% 29.99 in 10.0 mi SE 8.1 mph - N/A   Overcast
6:35 AM 19.4 °F 8.6 °F 17.6 °F 93% 29.97 in 10.0 mi SE 9.2 mph - N/A   Overcast
6:55 AM 21.2 °F 9.5 °F 19.4 °F 93% 29.97 in 10.0 mi SE 11.5 mph - N/A   Mostly Cloudy
7:15 AM 21.2 °F 7.8 °F 19.4 °F 93% 29.95 in 10.0 mi SE 15.0 mph - N/A   Scattered Clouds
7:35 AM 21.2 °F 8.3 °F 19.4 °F 93% 29.94 in 10.0 mi SE 13.8 mph - N/A   Clear
7:55 AM 21.2 °F 7.8 °F 19.4 °F 93% 29.92 in 10.0 mi SE 15.0 mph - N/A   Scattered Clouds
8:15 AM 21.2 °F 7.8 °F 17.6 °F 86% 29.92 in 10.0 mi SE 15.0 mph - N/A   Scattered Clouds
8:35 AM 21.2 °F 8.9 °F 17.6 °F 86% 29.90 in 10.0 mi SE 12.7 mph - N/A   Clear
8:55 AM 23.0 °F 10.1 °F 17.6 °F 80% 29.89 in 10.0 mi SE 15.0 mph - N/A   Scattered Clouds
9:15 AM 23.0 °F 10.1 °F 17.6 °F 80% 29.89 in 10.0 mi SE 15.0 mph - N/A   Clear
9:35 AM 24.8 °F 12.4 °F 17.6 °F 74% 29.87 in 10.0 mi SE 15.0 mph - N/A   Clear
9:55 AM 24.8 °F 11.1 °F 17.6 °F 74% 29.86 in 10.0 mi ESE 18.4 mph - N/A   Clear
10:15 AM 24.8 °F 10.7 °F 17.6 °F 74% 29.84 in 10.0 mi SE 19.6 mph 25.3 mph N/A   Clear
10:35 AM 26.6 °F 13.4 °F 17.6 °F 69% 29.86 in 10.0 mi SSE 18.4 mph 31.1 mph N/A   Clear
10:55 AM 26.6 °F 14.3 °F 17.6 °F 69% 29.86 in 10.0 mi SSE 16.1 mph 27.6 mph N/A   Clear
11:15 AM 28.4 °F 13.5 °F 19.4 °F 69% 29.85 in 10.0 mi South 26.5 mph 41.4 mph N/A   Clear
11:35 AM 30.2 °F 14.9 °F 19.4 °F 64% 29.84 in 7.0 mi SSW 31.1 mph 44.9 mph N/A   Clear
11:55 AM 32.0 °F 16.5 °F 21.2 °F 64% 29.83 in 5.0 mi SSW 35.7 mph 57.5 mph N/A   Haze
12:15 PM 32.0 °F 17.9 °F 21.2 °F 64% 29.82 in 7.0 mi SW 28.8 mph 44.9 mph N/A   Scattered Clouds
12:35 PM 33.8 °F 19.2 °F 21.2 °F 60% 29.81 in 10.0 mi SW 34.5 mph 46.0 mph N/A   Clear
12:55 PM 32.0 °F 17.9 °F 21.2 °F 64% 29.80 in 10.0 mi SSW 28.8 mph 38.0 mph N/A   Clear
1:15 PM 33.8 °F 18.8 °F 21.2 °F 60% 29.79 in 10.0 mi SSW 36.8 mph 46.0 mph N/A   Clear
1:35 PM 32.0 °F 18.9 °F 21.2 °F 64% 29.81 in 10.0 mi South 24.2 mph 39.1 mph N/A   Scattered Clouds
1:55 PM 33.8 °F 19.9 °F 21.2 °F 60% 29.79 in 10.0 mi SSW 31.1 mph 41.4 mph N/A   Mostly Cloudy
2:15 PM 35.6 °F 21.1 °F 23.0 °F 60% 29.77 in 2.5 mi SW 38.0 mph 55.2 mph N/A   Haze
2:35 PM 35.6 °F 22.1 °F 23.0 °F 60% 29.79 in 7.0 mi WSW 32.2 mph 46.0 mph N/A   Clear
2:55 PM 37.4 °F 25.0 °F 24.8 °F 60% 29.79 in 10.0 mi SW 29.9 mph 40.3 mph N/A   Clear
3:15 PM 37.4 °F 24.2 °F 26.6 °F 65% 29.80 in 10.0 mi WSW 34.5 mph 50.6 mph N/A   Clear
3:35 PM 37.4 °F 23.5 °F 24.8 °F 60% 29.78 in 4.0 mi SW 39.1 mph 52.9 mph N/A   Haze
3:55 PM 35.6 °F 23.2 °F 24.8 °F 65% 29.81 in 10.0 mi WSW 26.5 mph 41.4 mph N/A   Clear
4:15 PM 35.6 °F 20.5 °F 23.0 °F 60% 29.79 in 10.0 mi WSW 42.6 mph 51.8 mph N/A   Clear
4:35 PM 35.6 °F 21.0 °F 23.0 °F 60% 29.79 in 4.0 mi SW 39.1 mph 56.4 mph N/A   Haze
4:55 PM 35.6 °F 20.8 °F 23.0 °F 60% 29.80 in 4.0 mi WSW 40.3 mph 58.7 mph N/A   Haze
5:15 PM 35.6 °F 21.9 °F 23.0 °F 60% 29.81 in 10.0 mi WSW 33.4 mph 52.9 mph N/A   Clear
5:35 PM 35.6 °F 24.0 °F 23.0 °F 60% 29.81 in 10.0 mi WSW 23.0 mph 39.1 mph N/A   Clear
5:55 PM 35.6 °F 22.7 °F 23.0 °F 60% 29.82 in 10.0 mi West 28.8 mph 35.7 mph N/A   Clear
6:15 PM 33.8 °F 19.4 °F 24.8 °F 70% 29.83 in 10.0 mi West 33.4 mph 46.0 mph N/A   Clear
6:35 PM 35.6 °F 23.0 °F 23.0 °F 60% 29.83 in 10.0 mi West 27.6 mph 42.6 mph N/A   Clear
6:55 PM 33.8 °F 18.5 °F 24.8 °F 70% 29.83 in 7.0 mi WSW 39.1 mph 54.1 mph N/A   Clear
7:15 PM 33.8 °F 16.9 °F 26.6 °F 75% 29.82 in 2.5 mi WSW 50.6 mph 58.7 mph N/A   Haze
7:35 PM 33.8 °F 17.0 °F 26.6 °F 75% 29.82 in 3.0 mi WSW 49.5 mph 58.7 mph N/A   Haze
7:55 PM 33.8 °F 17.8 °F 26.6 °F 75% 29.83 in 3.0 mi WSW 43.7 mph 54.1 mph N/A   Haze
8:15 PM 33.8 °F 17.9 °F 24.8 °F 70% 29.83 in 1.8 mi SW 42.6 mph 56.4 mph N/A Snow Light Snow
8:35 PM 33.8 °F 17.8 °F 24.8 °F 70% 29.83 in 3.0 mi SW 43.7 mph 52.9 mph N/A   Haze
8:55 PM 33.8 °F 18.5 °F 24.8 °F 70% 29.84 in 3.0 mi SW 39.1 mph 55.2 mph N/A   Haze
9:15 PM 33.8 °F 17.0 °F 24.8 °F 70% 29.84 in 2.5 mi WSW 49.5 mph 58.7 mph N/A   Haze
9:35 PM 33.8 °F 19.9 °F 23.0 °F 65% 29.87 in 10.0 mi WSW 31.1 mph 47.2 mph N/A   Clear
9:55 PM 33.8 °F 21.6 °F 23.0 °F 65% 29.89 in 10.0 mi West 23.0 mph 28.8 mph N/A   Clear
10:15 PM 33.8 °F 21.6 °F 21.2 °F 60% 29.90 in 10.0 mi WSW 23.0 mph 27.6 mph N/A   Clear
10:35 PM 33.8 °F 21.0 °F 21.2 °F 60% 29.89 in 10.0 mi WSW 25.3 mph 31.1 mph N/A   Clear
10:55 PM 33.8 °F 21.3 °F 23.0 °F 65% 29.90 in 10.0 mi WSW 24.2 mph 31.1 mph N/A   Clear
11:15 PM 33.8 °F 23.9 °F 21.2 °F 60% 29.91 in 10.0 mi West 15.0 mph - N/A   Clear
11:35 PM 33.8 °F 23.5 °F 19.4 °F 56% 29.91 in 10.0 mi West 16.1 mph - N/A   Clear
11:55 PM 33.8 °F 23.2 °F 17.6 °F 52% 29.91 in 10.0 mi WSW 17.3 mph - N/A   Clear